Polokwane, South Africa

1:07 PM SAST on January 18, 2018 (GMT +0200)
Polokwane

Weather History for FAPP - March, 2013

Change the Weather History Date:

Saturday, March 16, 2013

  Actual Average Record
Temperature  
Mean Temperature 66 °F -  
Max Temperature 82 °F - - ()
Min Temperature 50 °F - - ()
Cooling Degree Days 1    
Growing Degree Days 16 (Base 50)    
Moisture  
Dew Point 49 °F    
Average Humidity 57    
Maximum Humidity 87    
Minimum Humidity 30    
Precipitation  
Precipitation 0.00 in - - ()
Sea Level Pressure  
Sea Level Pressure 30.08 in    
Wind  
Wind Speed 4 mph ()    
Max Wind Speed 16 mph    
Max Gust Speed -    
Visibility 6.0 miles    
Events      
T = Trace of Precipitation, MM = Missing Value Source: Averaged Metar Reports

Daily Weather History Graph

Daily Weather History Graph

Search for Another Location

Airport or City:

Trip Planner

Search our weather history database for the weather conditions in past years. The results will help you decide how hot, cold, wet, or windy it might be!

Date:

Astronomy

Mar. 16, 2013 Rise Set
Actual Time 6:04 AM SAST 6:16 PM SAST
Civil Twilight 5:41 AM SAST 6:39 PM SAST
Nautical Twilight 5:15 AM SAST 7:05 PM SAST
Astronomical Twilight 4:48 AM SAST 7:32 PM SAST
Moon 10:03 AM SAST (3/16) 9:18 PM SAST (3/16)
Length of Visible Light 12h 58m
Length of Day
12h 12m
Waxing Crescent, 21% of the Moon is Illuminated
Mar 16
Waxing Crescent
Mar 19
First Quarter
Mar 27
Full
Apr 3
Last Quarter
Apr 10
New

Hourly Weather History & Observations

Time (SAST) Temp. Dew Point Humidity Pressure Visibility Wind Dir Wind Speed Gust Speed Precip Events Conditions
12:00 AM 55.4 °F 48.2 °F 77% 30.12 in - North 2.3 mph - N/A   Unknown
1:00 AM 53.6 °F 48.2 °F 82% 30.12 in - WSW 2.3 mph - N/A   Unknown
2:00 AM 53.6 °F 46.4 °F 77% 30.09 in - NNE 1.2 mph - N/A   Unknown
3:00 AM 53.6 °F 48.2 °F 82% 30.09 in - South 2.3 mph - N/A   Unknown
4:00 AM 51.8 °F 46.4 °F 82% 30.09 in - South 3.5 mph - N/A   Unknown
5:00 AM 51.8 °F 46.4 °F 82% 30.06 in 5.0 mi South 2.3 mph - N/A   Unknown
6:00 AM 50.0 °F 44.6 °F 82% 30.09 in - SSW 3.5 mph - N/A   Clear
7:00 AM 50.0 °F 46.4 °F 87% 30.12 in - SSW 4.6 mph - N/A   Clear
8:00 AM 57.2 °F 48.2 °F 72% 30.12 in - SSW 5.8 mph - N/A   Clear
8:05 AM 59.0 °F 48.2 °F 67% 30.12 in - SSW 5.8 mph - N/A   Clear
9:00 AM 64.4 °F 48.2 °F 56% 30.15 in - West 3.5 mph - N/A   Clear
10:00 AM 71.6 °F 50.0 °F 46% 30.15 in - WSW 5.8 mph - N/A   Clear
11:00 AM 77.0 °F 48.2 °F 36% 30.15 in 6.2 mi WSW 16.1 mph - N/A   Partly Cloudy
12:00 PM 77.0 °F 48.2 °F 36% 30.09 in 6.2 mi SW 11.5 mph - N/A   Partly Cloudy
1:00 PM 80.6 °F 50.0 °F 34% 30.06 in 6.2 mi WSW 10.4 mph - N/A   Partly Cloudy
2:00 PM 80.6 °F 50.0 °F 34% 30.04 in 6.2 mi SW 5.8 mph - N/A   Partly Cloudy
3:00 PM 82.4 °F 48.2 °F 30% 30.01 in 6.2 mi WNW 5.8 mph - N/A   Scattered Clouds
4:00 PM 82.4 °F 48.2 °F 30% 30.01 in 6.2 mi WSW 9.2 mph - N/A   Scattered Clouds
5:00 PM 82.4 °F 48.2 °F 30% 30.01 in 6.2 mi WNW 10.4 mph - N/A   Scattered Clouds
6:00 PM 80.6 °F 50.0 °F 34% 30.01 in - West 4.6 mph - N/A   Clear
7:00 PM 75.2 °F 51.8 °F 44% 30.01 in - North 3.5 mph - N/A   Clear
8:00 PM 73.4 °F 51.8 °F 47% 30.04 in - NW 1.2 mph - N/A   Clear
9:00 PM 69.8 °F 53.6 °F 56% 30.04 in - ENE 2.3 mph - N/A   Unknown
10:00 PM 68.0 °F 51.8 °F 56% 30.06 in - East 3.5 mph - N/A   Unknown
11:00 PM 60.8 °F 51.8 °F 72% 30.06 in - SW 2.3 mph - N/A   Unknown